TimeICT,TemperatureF,Dew PointF,Humidity,Sea Level PressureIn,VisibilityMPH,Wind Direction,Wind SpeedMPH,Gust SpeedMPH,PrecipitationIn,Events,Conditions,WindDirDegrees,DateUTC
12:30 AM,75.2,71.6,89,29.83,4.3,WSW,3.5,-,N/A,,Unknown,250,2013-01-13 17:30:00
1:00 AM,75.2,71.6,89,29.83,4.3,South,2.3,-,N/A,,Unknown,190,2013-01-13 18:00:00
7:00 AM,75.2,69.8,83,29.89,2.5,East,4.6,-,N/A,,Haze,90,2013-01-14 00:00:00
7:30 AM,75.2,69.8,83,29.89,2.5,East,4.6,-,N/A,,Haze,90,2013-01-14 00:30:00
8:00 AM,75.2,66.2,73,29.89,5.0,ESE,4.6,-,N/A,,Scattered Clouds,110,2013-01-14 01:00:00
8:30 AM,77.0,66.2,69,29.92,5.0,ESE,4.6,-,N/A,,Scattered Clouds,110,2013-01-14 01:30:00
9:00 AM,77.0,64.4,65,29.92,5.0,East,5.8,-,N/A,,Scattered Clouds,80,2013-01-14 02:00:00
10:00 AM,80.6,68.0,65,29.92,5.6,East,8.1,-,N/A,,Scattered Clouds,100,2013-01-14 03:00:00
10:30 AM,80.6,69.8,70,29.92,5.6,ESE,8.1,-,N/A,,Scattered Clouds,110,2013-01-14 03:30:00
11:00 AM,80.6,69.8,70,29.89,5.6,SSE,5.8,-,N/A,,Scattered Clouds,150,2013-01-14 04:00:00
11:30 AM,82.4,69.8,66,29.89,5.6,SSE,3.5,-,N/A,,Scattered Clouds,150,2013-01-14 04:30:00
12:00 PM,80.6,69.8,70,29.86,5.6,ESE,6.9,-,N/A,,Scattered Clouds,110,2013-01-14 05:00:00
12:30 PM,84.2,71.6,66,29.86,5.6,ESE,6.9,-,N/A,,Scattered Clouds,120,2013-01-14 05:30:00
1:00 PM,84.2,71.6,66,29.83,5.6,ENE,6.9,-,N/A,,Scattered Clouds,70,2013-01-14 06:00:00
1:30 PM,84.2,71.6,66,29.83,5.6,SE,6.9,-,N/A,,Scattered Clouds,140,2013-01-14 06:30:00
2:00 PM,86.0,69.8,58,29.80,6.2,ENE,4.6,-,N/A,,Scattered Clouds,60,2013-01-14 07:00:00
2:30 PM,87.8,69.8,55,29.80,6.2,SSE,4.6,-,N/A,,Scattered Clouds,160,2013-01-14 07:30:00
3:00 PM,86.0,69.8,58,29.80,6.2,ESE,8.1,-,N/A,,Scattered Clouds,120,2013-01-14 08:00:00
3:30 PM,84.2,69.8,62,29.80,6.2,East,3.5,-,N/A,,Partly Cloudy,80,2013-01-14 08:30:00
4:00 PM,86.0,69.8,58,29.80,6.2,SE,4.6,-,N/A,,Scattered Clouds,130,2013-01-14 09:00:00
4:30 PM,86.0,69.8,58,29.80,6.2,SE,5.8,-,N/A,,Scattered Clouds,130,2013-01-14 09:30:00
5:00 PM,86.0,69.8,58,29.80,6.2,SE,5.8,-,N/A,,Scattered Clouds,130,2013-01-14 10:00:00
5:30 PM,84.2,69.8,62,29.80,6.2,SE,5.8,-,N/A,,Partly Cloudy,140,2013-01-14 10:30:00
6:00 PM,82.4,71.6,70,29.83,5.6,SSE,3.5,-,N/A,,Unknown,160,2013-01-14 11:00:00
6:30 PM,80.6,73.4,79,29.83,5.6,South,3.5,-,N/A,,Unknown,170,2013-01-14 11:30:00
7:00 PM,80.6,73.4,79,29.83,5.6,SSE,3.5,-,N/A,,Unknown,150,2013-01-14 12:00:00
7:30 PM,78.8,73.4,83,29.83,4.3,SSE,4.6,-,N/A,,Unknown,150,2013-01-14 12:30:00
8:00 PM,80.6,73.4,79,29.83,4.3,SE,3.5,-,N/A,,Unknown,140,2013-01-14 13:00:00
8:30 PM,78.8,71.6,78,29.83,4.3,SE,5.8,-,N/A,,Unknown,140,2013-01-14 13:30:00
9:00 PM,78.8,71.6,78,29.86,4.3,SE,5.8,-,N/A,,Unknown,140,2013-01-14 14:00:00
9:30 PM,78.8,71.6,78,29.86,4.3,SE,5.8,-,N/A,,Unknown,130,2013-01-14 14:30:00
10:00 PM,78.8,71.6,78,29.86,4.3,SE,4.6,-,N/A,,Unknown,130,2013-01-14 15:00:00
10:30 PM,77.0,71.6,83,29.86,4.3,SE,4.6,-,N/A,,Unknown,130,2013-01-14 15:30:00
11:00 PM,77.0,71.6,83,29.83,4.3,ESE,4.6,-,N/A,,Unknown,120,2013-01-14 16:00:00
11:30 PM,75.2,71.6,89,29.83,4.3,East,3.5,-,N/A,,Unknown,100,2013-01-14 16:30:00